The Cajun Classic - trainer 65 miles

Station: Oakdale - T Race

Distance: 65 Miles    

Release: 12-Sep-2017 08:45

Weather Release:    Arrival:

Wind at Release:     Wind at Arrival:

Temp at Release: °    Temp at Arrival: °

Lofts: 45

Birds: 181

Clocked: 136

Good Luck to Everyone!
Drops Pos Breeder Pigeon Name Color Sex Ent Arrival Speed To Win Eligible
101 Nanez Family Lofts - WI 4169-AU17-NANE BB C 6 10:21:32.90 1184.899 00:13:55 Yes
102 New Orleans Boys 2 - LA 0510-AU17-DELT BB H 3 10:21:36.30 1184.204 00:13:58 Yes
103 Lyons Loft - TX 1202-AU17-TXHC BB C 2 10:25:25.90 1139.083 00:17:48 Yes
104 J & K Of Tx - TX 0421-AU17-PB RC C 1 10:29:18.70 1096.713 00:21:40 Yes
105 Tom Cosgriff - NJ 0030-AU17-ARPU BC C 1 10:29:57.70 1089.922 00:22:19 Yes
106 Gilbert Wiltz - TX 10941-AU17-AA BCWF C 3 10:30:02.20 1089.143 00:22:24 Yes
107 Bottoms Up Loft - TX 8671-AU17-AA BC H 3 10:31:18.10 1076.183 00:23:40 Yes
108 Vick Corso - LA 1246-AU17-CORS BC H 3 10:33:22.90 1055.529 00:25:45 Yes
109 Lewis Loft - LA 7319-AU17-CENL BC H 2 10:40:24.70 991.234 00:32:46 Yes
110 New Orleans Boys 2 - LA 0340-AU17-MET BB H 4 10:43:08.60 968.315 00:35:30 Yes
111 Johnson/Mailhes - LA 0161-AU17-LAF BC H 4 10:43:26.10 965.931 00:35:48 Yes
112 Mcconnell Loft - FL 1802-AU17-GHC BBPD H 3 10:43:29.70 965.442 00:35:51 Yes
113 R & R Loft - LA 0143-AU17-MILL BB H 1 10:43:30.40 965.347 00:35:52 Yes
114 Cajun Express Loft - LA 0816-AU17-CEL BB H 2 10:43:32.70 965.034 00:35:54 Yes
115 Black Gold Loft - TX 22155-AU17-AA BB C 4 10:43:36.10 964.573 00:35:58 Yes
116 El Dorado Loft - TX 0152-AU17-TEXA BB C 3 10:43:37.20 964.424 00:35:59 Yes
117 Bionic Loft - LA 0664-AU17-CAJU BCWF H 1 10:43:54.10 962.140 00:36:16 Yes
118 Black Magic Loft - TX 0434-AU17-BLAC BB H 4 10:44:00.80 961.237 00:36:22 Yes
119 R & R Loft - LA 0150-AU17-MILL BB C 2 10:44:24.70 958.030 00:36:46 Yes
120 Tom Cosgriff - NJ 0029-AU17-ARPU BC H 2 10:59:10.80 852.586 00:51:32 Yes
121 Ed Minvielle - LA 17040-AU17-A BBWF H 6 11:00:37.20 843.533 00:52:59 Yes
122 Bottoms Up Loft - TX 8672-AU17-AA BBP H 4 11:00:39.90 843.254 00:53:02 Yes
123 Black Magic Loft - TX 0458-AU17-BLAC BBPD H 5 11:00:40.50 843.191 00:53:02 Yes
124 Two Cousins - LA 3046-AU17-BAYO BB H 1 11:03:43.60 824.643 00:56:05 Yes
125 B & S Loft 2 - LA 0773-AU17-LAF BC H 2 11:03:44.20 824.584 00:56:06 Yes
126 Gilbert Wiltz - TX 10936-AU17-AA BCWF H 4 11:03:44.70 824.534 00:56:06 Yes
127 Hynes - LA 1361-AU17-SLID BB C 3 11:03:48.70 824.138 00:56:10 Yes
128 Poorshow Loft - LA 22408-AU17-AA SILV C 3 11:04:48.90 818.224 00:57:11 Yes
129 New Orleans Boys 2 - LA 0314-AU17-MET BC H 5 11:05:34.70 813.781 00:57:56 Yes
130 Toca Ridge Loft - LA 7384-AU17-AA GRIZ C 2 11:15:51.20 758.352 01:08:13 Yes
131 Bottoms Up Loft - TX 8657-AU17-AA BBP C 5 11:47:19.70 627.440 01:39:41 Yes
132 Poorshow Loft - LA 22401-AU17-AA BB C 4 12:00:47.90 584.275 01:53:10 Yes
133 Clear Springs Loft - FL 17064-AU17-WARD DC C 3 13:59:59.50 363.184 03:52:21 Yes
134 H H H No 2 - TX 19855-AU17-FOYS BCWF C 4 14:59:52.60 305.167 04:52:14 Yes
135 Vick Corso - LA 1258-AU17-CORS DC H 4 16:42:35.10 239.539 06:34:57 Yes
136 Aucoin & Rivero Loft - LA 0421-AU17-MET BCWF C 3 16:51:37.30 235.090 06:43:59 Yes

There are 181 bird records

Note: These Race Results are unofficial and subject to change until verified by the Race Committee and declared final.